Regional Weather Roundup
Issued by NWS Columbia, SC

Home | Current Version | Previous Version | Text Only | Print | Product List | Glossary On
Versions: 1 2 3 4 5 6 7 8 9 10 11 12 13 14 15 16 17 18 19 20 21 22 23 24 25 26 27 28 29 30 31 32 33 34 35 36 37 38 39 40 41 42 43 44 45 46 47 48 49 50
000
ASUS42 KCAE 240610
RWRCAE
REGIONAL WEATHER ROUNDUP
NATIONAL WEATHER SERVICE COLUMBIA SC
100 AM EST MON NOV 24 2014

NOTE: "FAIR" INDICATES FEW OR NO CLOUDS BELOW 12,000 FEET WITH NO
SIGNIFICANT WEATHER AND/OR OBSTRUCTIONS TO VISIBILITY.

NOT ALL STATIONS ARE QUALITY CONTROLLED BY THE NATIONAL
WEATHER SERVICE. USE DATA WITH CAUTION...ESPECIALLY
DEWPOINT OBSERVATIONS.

SCZ001>056-GAZ040-063>065-077-240700-
...UPSTATE SOUTH CAROLINA...

CITY           SKY/WX    TMP DP  RH WIND       PRES   REMARKS
ANDERSON       MOCLDY    55  54  96 SW9       29.76S
6HR MIN TEMP:  48; 6HR MAX TEMP:  56; 6HR PCP:  0.01;

LIBERTY        CLOUDY    55  55 100 MISG      29.74S
6HR MIN TEMP:  28; 6HR MAX TEMP:  56;

SPARTANBURG    FAIR      59 N/A N/A SW6       29.73F
CLEMSON        CLOUDY    56  53  90 MISG      29.76S
6HR MIN TEMP:  52; 6HR MAX TEMP:  56; 6HR PCP:  0.02;

GREENVILLE     MOCLDY    58  55  90 SW12      29.74F
6HR MIN TEMP:  49; 6HR MAX TEMP:  58; 6HR PCP:  0.27;

GREENWOOD      CLOUDY    61  59  93 SW12      29.78S
6HR MIN TEMP:  60; 6HR MAX TEMP:  66; 6HR PCP:  0.19;

GREER          CLOUDY    57  56  96 SW13      29.71F
6HR MIN TEMP:  48; 6HR MAX TEMP:  57; 6HR PCP:  0.38;

ROCK HILL      CLOUDY    62  59  90 SW13G18   29.75R
6HR MIN TEMP:  58; 6HR MAX TEMP:  64; 6HR PCP:  0.37;

CHESTER        CLOUDY    64  61  88 SW5       29.76R
LAURENS        CLOUDY   N/A N/A N/A SW12G17   29.76S


...CENTRAL SOUTH CAROLINA...

CITY           SKY/WX    TMP DP  RH WIND       PRES   REMARKS
COLUMBIA APT   MOCLDY    67  62  84 SW13G22   29.76S
6HR MIN TEMP:  65; 6HR MAX TEMP:  69; 6HR PCP:  0.61;

COLUMBIA OWENS MOCLDY    67  62  84 SW9G21    29.78R
6HR MIN TEMP:  65; 6HR MAX TEMP:  68; 6HR PCP:  0.86;

DARLINGTON     PTCLDY    64  59  82 S9        29.77R
6HR MIN TEMP:  63; 6HR MAX TEMP:  66; 6HR PCP:  0.39;

FLORENCE       PTCLDY    63  61  93 SE3       29.76S
6HR MIN TEMP:  63; 6HR MAX TEMP:  69; 6HR PCP:  0.72;

MCENTIRE ANGB  CLOUDY    67  65  94 SW14G21   29.77R
6HR MIN TEMP:  65; 6HR MAX TEMP:  67; 6HR PCP:  0.56;

ORANGEBURG     MOCLDY    68  64  87 SW15      29.79R
6HR MIN TEMP:  65; 6HR MAX TEMP:  69; 6HR PCP:  0.30;

SUMTER SHAW    PTCLDY    66  64  93 SW16      29.76R
6HR MIN TEMP:  64; 6HR MAX TEMP:  67; 6HR PCP:  0.37;

NEWBERRY       CLOUDY    63 N/A N/A SW15G22   29.79R
AIKEN          CLOUDY    64  64 100 SW15G28   29.81S
BARNWELL       CLOUDY    68  66  94 SW8       29.80F
CAMDEN         CLOUDY    64  63  94 SW13G18   29.77R
LANCASTER      LGT RAIN  64  64 100 SW12      29.75R
WINNSBORO      CLOUDY    63  63 100 SW8       29.76R


...EASTERN AND COASTAL SOUTH CAROLINA...

CITY           SKY/WX    TMP DP  RH WIND       PRES   REMARKS
MYRTLE BEACH   CLOUDY    64  63  94 S9          N/A
6HR MIN TEMP:  64; 6HR MAX TEMP:  72; 6HR PCP:  1.14;

N MYRTLE BCH   FOG       65  64  97 S9        29.81R VSB 3/4
6HR MIN TEMP:  64; 6HR MAX TEMP:  71; 6HR PCP:  1.61;

CONWAY         FAIR      63 N/A N/A S7        29.80R
FLORENCE       PTCLDY    63  61  93 SE3       29.76S
6HR MIN TEMP:  63; 6HR MAX TEMP:  69; 6HR PCP:  0.72;

DARLINGTON     PTCLDY    64  59  82 S9        29.77R
6HR MIN TEMP:  63; 6HR MAX TEMP:  66; 6HR PCP:  0.39;

CHARLESTON APT MOCLDY    66  64  93 SW9       29.84R
6HR MIN TEMP:  64; 6HR MAX TEMP:  72; 6HR PCP:  0.53;

MOUNT PLEASANT FAIR      66  66 100 SW9       29.83R
WALTERBORO     RAIN      68 N/A N/A SW10      29.83S
BEAUFORT       LGT RAIN  67  65  93 SW6       29.86R
6HR MIN TEMP:  66; 6HR MAX TEMP:  70; 6HR PCP:  0.60;



...EASTERN GEORGIA...

CITY           SKY/WX    TMP DP  RH WIND       PRES   REMARKS
AUGUSTA BUSH F MOCLDY    66  63  90 SW10      29.79S
6HR MIN TEMP:  65; 6HR MAX TEMP:  69; 6HR PCP:  0.16;

AUGUSTA DANIEL CLOUDY    67  62  84 SW14G29   29.80R
6HR MIN TEMP:  66; 6HR MAX TEMP:  68; 6HR PCP:  0.12;

THOMSON        MOCLDY    65  65  98 SW7G16    29.83S
WASHINGTON     MOCLDY    64  64 100 SW6       29.78S
CLAXTON        CLOUDY    68  68 100 CALM      29.82F
SYLVANIA       CLOUDY    66  65  97 SW5       29.83R
6HR MIN TEMP:  66; 6HR MAX TEMP:  70;

STATESBORO     CLOUDY    66  66 100 SW5       29.82S
SAVANNAH       MOCLDY    68  65  90 SE3       29.84R
6HR MIN TEMP:  68; 6HR MAX TEMP:  72; 6HR PCP:  0.29;



...SOUTHERN NORTH CAROLINA...

CITY           SKY/WX    TMP DP  RH WIND       PRES   REMARKS
CHARLOTTE      PTCLDY    63  57  81 SW14G23   29.73S
6HR MIN TEMP:  58; 6HR MAX TEMP:  65; 6HR PCP:  0.58;

MONROE         CLOUDY    64  60  87 SW17G32   29.73R
6HR MIN TEMP:  59; 6HR MAX TEMP:  66; 6HR PCP:  0.54;

WADESBORO      MOCLDY    64  62  91 S5        29.73R
6HR MIN TEMP:  62; 6HR MAX TEMP:  66; 6HR PCP:  0.49;

ROCKINGHAM     PTCLDY    63  62  95 S7        29.74S
6HR MIN TEMP:  62; 6HR MAX TEMP:  65; 6HR PCP:  0.34;

RUTHERFORDTON  CLOUDY    53  53 100 S9        29.72F
6HR MIN TEMP:  46; 6HR MAX TEMP:  53; 6HR PCP:  0.48;

ASHEVILLE      PTCLDY    54  51  90 S18G26    29.71F
6HR MIN TEMP:  48; 6HR MAX TEMP:  56; 6HR PCP:  0.42;


$$


USA.gov is the U.S. government's official web portal to all federal, state and local government web resources and services.